Flag for U.S.A. Weather past 2 weeks in Wichita Falls, Texas, U.S.A.

Now
72 °F

Thundershowers. Passing clouds.


Feels Like: 71 °F
Forecast: 65 / 73 °F
Wind: 3 mph from Northwest

Location: Wichita Falls - Sheppard Air Force Base

Current Time: May 25, 2015 at 1:44:52 PM

Latest Report: May 25, 2015 at 1:04 PM


Visibility: 10 mi

Pressure: 29.87 "Hg

Humidity: 84%

Dew point: 67 °F

Location of Wichita FallsLocation

Historic Weather in Wichita Falls — Graph

°F

Wichita Falls temperature yesterday

Maximum temperature yesterday: 79 °F (at 4:52 PM)
Minimum temperature yesterday: 63 °F (at 5:52 AM)
Average temperature yesterday: 70 °F

Past Weeks' High & Low Weather Summary

 TemperatureHumidityPressure
High87 °F (May 18, 3:52 PM)100% (May 18, 8:02 AM)30.30 "Hg (May 18, 8:02 AM)
Low51 °F (May 11, 6:52 AM)26% (May 17, 4:52 PM)29.62 "Hg (May 16, 5:52 PM)
Average68 °F80%29.98 "Hg
* Reported May 10 11:52 AM — May 25 11:52 AM, Wichita Falls, Weather by CustomWeather, © 2015

Note: Actual official high and low records may vary slightly from our data, if they occured in-between our weather recording intervals... More about our weather records

Advertising

Wichita Falls weather history for previous 24 hours

 ConditionsComfort  
Time TempWeatherWind HumidityBarometerVisibility
11:52 AM
Mon, May 25
74 °FPassing clouds.8 mph79%29.83 "Hg10 mi
10:52 AM75 °FPartly sunny.14 mph79%29.84 "Hg10 mi
9:52 AM76 °FBroken clouds.14 mph80%29.81 "Hg10 mi
8:52 AM73 °FScattered clouds.12 mph84%29.83 "Hg10 mi
7:52 AM70 °FPartly sunny.10 mph90%29.81 "Hg10 mi
7:02 AM69 °FOvercast.15 mph93%29.86 "Hg7 mi
6:52 AM68 °FLow clouds.13 mph96%29.82 "Hg7 mi
5:52 AM67 °FPassing clouds.13 mph97%29.79 "Hg7 mi
4:59 AM67 °FPassing clouds.12 mph97%29.82 "Hg7 mi
3:52 AM67 °FClear.8 mph97%29.78 "Hg9 mi
2:52 AM67 °FClear.10 mph97%29.78 "Hg10 mi
1:52 AM68 °FClear.9 mph93%29.79 "Hg10 mi
12:52 AM68 °FClear.12 mph93%29.80 "Hg10 mi
11:52 PM
Sun, May 24
69 °FClear.14 mph87%29.80 "Hg10 mi
10:52 PM68 °FClear.9 mph90%29.81 "Hg10 mi
9:52 PM70 °FClear.13 mph84%29.79 "Hg10 mi
8:52 PM70 °FSunny.9 mph81%29.77 "Hg10 mi
7:52 PM75 °FSunny.12 mph64%29.76 "Hg10 mi
6:52 PM78 °FSunny.15 mph62%29.75 "Hg10 mi
5:52 PM79 °FPassing clouds.12 mph60%29.75 "Hg10 mi
4:52 PM79 °FPassing clouds.9 mph56%29.75 "Hg10 mi
3:52 PM78 °FSunny.13 mph66%29.77 "Hg10 mi
2:52 PM77 °FScattered clouds.13 mph71%29.80 "Hg10 mi
1:52 PM75 °FScattered clouds.9 mph74%29.80 "Hg10 mi
Weather by CustomWeather, © 2015

See weather overviewHow to use our weather pages